Погода в Воронеже

Погода в Воронеже : погода сейчас, прогноз погоды и архив. Всё, что Вы хотите узнать о погоде в Воронеже!

Хотите узнать прогноз погоды в Воронеже? Тогда Вам сюда: Погода в Воронеже

Поиск расширенной информации на нашем сайте:

Другие новости

Новости СМИ2

Главная страница сайта

Новости сайта

03.07.2017

Напоминаем, что на нашем специализированном сайте Метеоцентр.Азия вы можете получить высокодетализированные автоматические прогнозы погоды по пунктам России, СНГ и мира в авиационном формате (включающие направление и скорость ветра, видимость, явления погоды, количество и форму облачности, нижнюю и верхнюю границу облачности).


Погода в Воронеже - сегодня

Время (UTC), дата Ветер
(°,м/с) 
Видим.   Явления Облачность Т
(°С)
Тd
(°С)
f(%) Тe
(°С)
Pmin
(гПа)
dP
(гПа)
Po
(мм)
O2
(г/м3)
Тmin Tmax R s Состояние
почвы
09 22.11.17 310 (СЗ) 6{12}  4000 м  слаб. ливневой дождь со снегом  10/10 200 м кучево-дожд. 
[Cb cap]
-0.2 -1.1 94 -4  1005  1.2  740  298          влажная 
12 22.11.17 300 (СЗ) 5{10}  10 км  слаб. ливневой дождь со снегом  10/10 300 м кучево-дожд. 
[Cb cap]
-0 -1.4 90 -3  1006.4  1.3  741  299           
15 22.11.17 300 (СЗ) 6-10{11}  10 км  слаб. ливневой дождь со снегом  10/10 300 м кучево-дожд. 
[Cb cap]
-0.2 -2 88 -4  1007.6  1.2  742  299    -0     
18 22.11.17 300 (СЗ) 10 км  слаб. ливневой дождь со снегом  10/10 600 м кучево-дожд. 
[Cb cap]
-0.5 -2.6 86 -4  1008.6  743  300           
21 22.11.17 310 (СЗ) 10 км  {ливн. осадки, снег}  10/10 600 м 
[St]
-0.8 -3.3 83 -3  1009.3  0.7  743  301           
00 23.11.17 340 (С) 10 км  слаб. ливневой снег  10/10 600 м кучево-дожд. 
[Cb cap]
-1.3 -3.8 83 -5  1009.4  0.1  743  301           
03 23.11.17 320 (СЗ) 10 км  слаб. ливневой снег  10/10 600 м кучево-дожд. 
[Cb cap]
-2.1 -5.3 79 -4  1010.5  744  303  -2.1    0.3  23  равномерный
мокрый или
старый снег
100% 
06 23.11.17 310 (СЗ) 2000 м  ливневой снег  10/10 300 м кучево-дожд. 
[Cb calv]
-2.7 -4 91 -5  1011.1  0.6  744  303  -2.7         
09 23.11.17 320 (СЗ) 2000 м  ливневой снег  10/10 300 м кучево-дожд. 
[Cb calv]
-2.6 -4.2 89 -6  1011.6  0.4  745  303           
12 23.11.17 340 (С) 2000 м  ливневой снег  10/10 300 м кучево-дожд. 
[Cb calv]
-2.9 -4.9 86 -6  1013  1.4  746  304           
15 23.11.17 340 (С) 2000 м  ливневой снег  10/10 300 м кучево-дожд. 
[Cb calv]
-3.4 -5.2 87 -7  1015  1.9  747  305    -2.1     
18 23.11.17 350 (С) 4{10}  2000 м  слаб. ливневой снег  10/10 300 м кучево-дожд. 
[Cb calv]
-3.9 -5.4 89 -7  1016.5  1.5  748  306           
21 23.11.17 010 (С) 10 км  {ливн. осадки}  10/10 300 м кучево-дожд. 
[Cb calv]
-3.9 -6.1 85 -6  1018.1  1.6  749  307           
00 24.11.17 010 (С) 4000 м  дымка{ливн. осадки}  10/10 300 м 
[St]
-4.1 -5.6 89 -6  1019.8  1.6  751  308           
03 24.11.17 010 (С) 4000 м  дымка  10/10 200 м 
[St]
-4.2 -5.1 93 -6  1021.3  1.5  752  308  -4.2    26  равномерный
сухой снег
100% 
06 24.11.17 010 (С) 10 км    10/10 200 м 
[St]
-3.9 -5.1 91 -5  1023.7  2.3  753  309           
09 24.11.17 020 (С) 10 км    10/10 200 м 
[St]
-3.1 -4.8 88 -4  1024.9  1.3  754  308           
12 24.11.17 330 (СЗ) 10 км    10/10 300 м 
[Sc]
-2.8 -4.8 86 -4  1025.1  0.2  755  308           
15 24.11.17 310 (СЗ) 10 км    10/10 300 м 
[Sc]
-3.4 -5.2 87 -5  1025.8  0.6  755  309    -2.8       
18 24.11.17 300 (СЗ) 10 км    10/10 300 м 
[Sc]
-4.5 -5.8 91 -4  1025.7  -0.1  755  310           
21 24.11.17 310 (СЗ) 10 км    10/10 300 м 
[Sc]
-4.8 -6.5 88 -8  1025.5  -0.2  755  310           
00 25.11.17 280 (З) 4000 м  дымка  10/10 200 м 
[St]
-5.8 -6.9 92 -8  1025.6  755  311           
03 25.11.17 240 (ЮЗ) 4000 м  дымка  10/10 200 м 
[St]
-4.9 -6.2 91 -8  1025.1  -0.4  755  310  -6.1      24  равномерный
сухой снег
100% 
06 25.11.17 270 (З) 10 км    10/10 300 м 
[Sc]
-3.9 -6.1 85 -6  1024.2  -0.9  754  309           
09 25.11.17 300 (СЗ) 10 км    10/10 300 м 
[Sc]
-3.4 -7 76 -6  1024.1  -0.1  754  308           
Время (UTC), дата Ветер
(°,м/с) 
Видим.   Явления Облачность Т
(°С)
Тd
(°С)
f(%) Тe
(°С)
Pmin
(гПа)
dP
(гПа)
Po
(мм)
O2
(г/м3)
Тmin Tmax R s Состояние
почвы

Для получения пояснительной информации подведите курсор к названию столбца.

ПОГОДА в Воронеже - архив

Всё, что Вы хотите узнать о погоде в Воронеже - удобно и подробно!

Выберите нужную дату (начиная с 1 января 2015* года) и нажмите кнопку "Найти".
Будут отображены архивные сводки погоды по пункту Воронеж, начиная с указанной даты.


Отображать данные в формате CSV (для использования в таблицах Excel)


Внимание! Наш архив погоды предназначен исключительно для личного некоммерческого использования в познавательных целях. Если Вам необходимы официальные справки о состоянии погоды (для производственных, юридических, коммерческих и т.п. целей), обращайтесь в органы Росгидромета.

*Примечание: данная дата относится к архиву по метеостанциям СССР (Россия, СНГ, Балтия).
Архив по метеостанциям Зарубежной Европы и Азии (кроме Китая) хранится 10 дней, по другим регионам земного шара (Китай, Африка, Америка, Австралия, Океания) - 1 день.

Воронеж - район местоположения метеостанции


Название, широта, долгота, высота метеостанции:
Воронеж (город) 51.6°ш. 39.2°д. 104 м над ур. моря [Российская Федерация]

Дополнительная информация

В oтличие oт бoльшинства пoгoдных сайтoв мы публикуем пoдрoбную метеoинфoрмацию в детальнoм прoфессиoнальнoм фoрмате.

Характеристики температуры и влажнoсти вoздуха измеряются на высoте 2 м в тени вдали oт зданий и деревьев.
Скoрoсть ветра измеряется на высoте 10 м (на урoвне рoста челoвека скoрoсть ветра ниже в 1.5-2 раза). Если метеoстанция нахoдится в гoрoде или в лесу, тo скoрoсть ветра занижена на 2-4 м/с пo сравнению с oткрытым местoм. Скoрoсть ветра над акватoриями крупных рек и oзёр, а также на вершинах хoлмoв на 2-5 м/с выше, чем в oбычных услoвиях.
Атмoсфернoе давление в разных тoчках местнoсти мoжет значительнo oтличаться oт давления на метеoстанции, в зависимoсти oт услoвий рельефа (при пoдъёме на 10 м давление пoнижается примернo на 1 мм рт.ст.).